User: anonymous   Login
Location: Oshawa
(43.9000°N, 78.8670°W)
Time: 18:07:05
(UTC-04:00)
Language:

S-56A Canister/Altair - Orbit

View from above orbital plane
View from above orbital plane
View from above satellite
View from above satellite

Ground track
Ground track

The orbit data is extracted from the following two-line orbital elements,

1    82U 61004B   16147.61156115 +.00000022 +00000-0 +63833-4 0  9997
2    82 038.8533 287.4140 1166355 128.7224 242.3667 12.25760539625813
Epoch (UTC): 26 May 2016 14:40:38
Eccentricity: 0.1166355
inclination: 38.8533°
perigee height: 641 km
apogee height: 2494 km
right ascension of ascending node: 287.4140°
argument of perigee: 128.7224°
revolutions per day: 12.25760539
mean anomaly at epoch: 242.3667°
orbit number at epoch: 62581

The dashed part of the orbit path shows where the satellite is in the earth's shadow,  

DLR